Home   Weather   Howell   Past weeks

Flag for USA Past Weather in Howell, Michigan, USA — Yesterday and Last 2 Weeks

Now
38 °F

Fog.


Feels Like: 31 °F
Forecast: 34 / 43 °F
Wind: 12 mph from West

Location: Livingston County Airport

Current Time: Jan 17, 2017 at 6:38:45 pm

Latest Report: Jan 17, 2017 at 5:54 pm


Visibility: 2 mi

Pressure: 29.84 "Hg

Humidity: 97%

Dew Point: 38 °F

Location of HowellLocation

Past Weather in Howell — Graph

°F

Howell Temperature Yesterday

Maximum temperature yesterday: 33 °F (at 2:54 pm)
Minimum temperature yesterday: 21 °F (at 4:54 am)
Average temperature yesterday: 28 °F

High & Low Weather Summary for the Past Weeks

 TemperatureHumidityPressure
High48 °F (Jan 11, 9:55 pm)98% (Jan 17, 3:15 am)30.75 "Hg (Jan 17, 3:15 am)
Low3 °F (Jan 7, 4:14 am)54% (Jan 5, 3:55 pm)29.34 "Hg (Jan 10, 6:35 pm)
Average24 °F81%30.11 "Hg
* Reported Jan 2 5:14 pm — Jan 17 5:14 pm, Howell, Weather by CustomWeather, © 2017

Note: Actual official high and low records may vary slightly from our data, if they occured in-between our weather recording intervals... More about our weather records

Advertising

Howell Weather History for the Previous 24 Hours

Scroll right to see more
 ConditionsComfort  
Time TempWeatherWind HumidityBarometerVisibility
5:14 pm
Tue, Jan 17
39 °FFog.9 mph96%29.82 "Hg1 mi
4:54 pm39 °FFog.8 mph97%29.81 "Hg1 mi
4:34 pm39 °FFog.9 mph96%29.80 "Hg1 mi
3:55 pm40 °FFog.9 mph96%29.79 "Hg1 mi
3:14 pm40 °FFog.9 mph97%29.77 "Hg1 mi
2:55 pm40 °FFog.10 mph97%29.76 "Hg1 mi
2:34 pm40 °FFog.8 mph97%29.76 "Hg1 mi
1:55 pm41 °FFog.8 mph97%29.74 "Hg1 mi
1:14 pm41 °FFog.9 mph96%29.75 "Hg1 mi
12:35 pm39 °FFog.3 mph97%29.75 "Hg0 mi
11:54 am38 °FFog.No wind97%29.75 "Hg0 mi
11:14 am37 °FDrizzle. Low clouds.No wind97%29.77 "Hg0 mi
10:55 am37 °FLight rain. Low clouds.No wind97%29.77 "Hg0 mi
10:34 am37 °FFog.No wind97%29.76 "Hg0 mi
9:55 am36 °FFog.7 mph97%29.75 "Hg1 mi
9:34 am36 °FFog.7 mph97%29.75 "Hg1 mi
8:54 am35 °FFog.7 mph97%29.75 "Hg1 mi
8:15 am34 °FLight rain. Low clouds.7 mph97%29.76 "Hg5 mi
7:54 am34 °FLight rain. Low clouds.8 mph97%29.78 "Hg5 mi
7:14 am34 °FLight snow. Low clouds.7 mph97%29.81 "Hg1 mi
6:54 am34 °FLight rain. Low clouds.10 mph97%29.80 "Hg1 mi
6:14 am33 °FLight rain. Low clouds.9 mph96%29.82 "Hg3 mi
5:54 am33 °FLight snow. Low clouds.10 mph96%29.83 "Hg3 mi
5:14 am33 °FLight rain. Low clouds.8 mph96%29.85 "Hg7 mi
4:34 am33 °FLight rain. Low clouds.10 mph96%29.87 "Hg5 mi
3:54 am33 °FLight rain. Low clouds.9 mph96%29.90 "Hg5 mi
3:15 am33 °FLight snow. Low clouds.10 mph98%29.91 "Hg4 mi
2:34 am33 °FLight rain. Low clouds.10 mph97%29.96 "Hg3 mi
1:54 am32 °FDrizzle. Low clouds.10 mph97%29.97 "Hg3 mi
1:14 am33 °FLight rain. Low clouds.9 mph97%30.00 "Hg2 mi
12:54 am33 °FLight snow. Low clouds.8 mph97%30.01 "Hg3 mi
12:14 am33 °FLight rain. Low clouds.7 mph97%30.04 "Hg4 mi
11:34 pm
Mon, Jan 16
32 °FLight rain. Low clouds.7 mph96%30.06 "Hg3 mi
11:14 pm32 °FLight snow. Low clouds.7 mph96%30.06 "Hg2 mi
10:54 pm32 °FLight rain. Low clouds.7 mph96%30.08 "Hg2 mi
10:15 pm32 °FLight rain. Mostly cloudy.7 mph95%30.10 "Hg4 mi
9:54 pm32 °FLight snow. Mostly cloudy.8 mph95%30.10 "Hg4 mi
9:34 pm32 °FLight snow. Mostly cloudy.5 mph93%30.13 "Hg4 mi
8:54 pm32 °FLight snow. Mostly cloudy.8 mph90%30.15 "Hg4 mi
8:14 pm32 °FLight snow. Overcast.8 mph87%30.15 "Hg5 mi
7:34 pm32 °FLight snow. Overcast.8 mph90%30.16 "Hg5 mi
6:55 pm32 °FLight snow. Mostly cloudy.6 mph88%30.18 "Hg5 mi
6:14 pm32 °FLight snow. Overcast.5 mph90%30.19 "Hg4 mi
Weather by CustomWeather, © 2017

See weather overviewHow to use our weather pages